When you browse on this site, cookies collect data to enhance your experience and personalize the content and advertising you see.
Visit our Privacy Policy to learn more. By continuing to use the site, you agree to this use of cookies and data.

Previsão horária em Nachiczewan

Hoje, 12 Julho, Domingo

Tempo Temperatura Precipitação Vento Pressão Humidade
00:00 +26°C° 0.1 mm 2 m/s 687 mmHg 53%
01:00 +25°C° 0 mm 2 m/s 686 mmHg 55%
02:00 +25°C° 0 mm 2 m/s 686 mmHg 57%
03:00 +24°C° 0 mm 1 m/s 685 mmHg 59%
04:00 +24°C° 0 mm 1 m/s 685 mmHg 60%
05:00 +24°C° 0 mm 1 m/s 685 mmHg 60%
06:00 +24°C° 0 mm 1 m/s 685 mmHg 60%
07:00 +25°C° 0 mm 2 m/s 685 mmHg 56%
08:00 +26°C° 0 mm 2 m/s 685 mmHg 51%
09:00 +27°C° 0 mm 1 m/s 685 mmHg 46%
10:00 +28°C° 0 mm 2 m/s 685 mmHg 42%
11:00 +30°C° 0 mm 2 m/s 685 mmHg 38%
12:00 +31°C° 0 mm 3 m/s 685 mmHg 35%
13:00 +33°C° 0 mm 3 m/s 685 mmHg 33%
14:00 +34°C° 0 mm 4 m/s 685 mmHg 31%
15:00 +34°C° 0 mm 5 m/s 684 mmHg 29%
16:00 +34°C° 0 mm 5 m/s 684 mmHg 31%
17:00 +33°C° 0 mm 4 m/s 684 mmHg 32%
18:00 +33°C° 0 mm 4 m/s 684 mmHg 34%
19:00 +32°C° 0.1 mm 4 m/s 684 mmHg 37%
20:00 +29°C° 0.1 mm 4 m/s 684 mmHg 41%
21:00 +28°C° 0.1 mm 4 m/s 684 mmHg 44%
22:00 +28°C° 0.2 mm 4 m/s 684 mmHg 45%
23:00 +27°C° 0.2 mm 3 m/s 683 mmHg 47%

Amanhã, 13 Julho, Segunda-feira

Tempo Temperatura Precipitação Vento Pressão Humidade
00:00 +27°C° 0.2 mm 3 m/s 683 mmHg 48%
01:00 +26°C° 0.1 mm 2 m/s 683 mmHg 50%
02:00 +26°C° 0.1 mm 2 m/s 683 mmHg 51%
03:00 +25°C° 0.1 mm 1 m/s 682 mmHg 52%
04:00 +25°C° 0.2 mm 1 m/s 682 mmHg 54%
05:00 +25°C° 0.2 mm 1 m/s 682 mmHg 56%
06:00 +24°C° 0.2 mm 1 m/s 682 mmHg 57%
07:00 +25°C° 0.1 mm 1 m/s 682 mmHg 54%
08:00 +26°C° 0.1 mm 1 m/s 682 mmHg 50%
09:00 +27°C° 0.1 mm 1 m/s 682 mmHg 46%
10:00 +28°C° 0.1 mm 1 m/s 682 mmHg 42%
11:00 +30°C° 0.1 mm 1 m/s 682 mmHg 38%
12:00 +31°C° 0.1 mm 1 m/s 682 mmHg 34%
13:00 +32°C° 0 mm 1 m/s 682 mmHg 32%
14:00 +33°C° 0 mm 1 m/s 682 mmHg 30%
15:00 +34°C° 0 mm 1 m/s 682 mmHg 27%
16:00 +33°C° 0.4 mm 3 m/s 682 mmHg 33%
17:00 +30°C° 0.4 mm 5 m/s 682 mmHg 39%
18:00 +28°C° 0.4 mm 7 m/s 682 mmHg 45%
19:00 +27°C° 0.3 mm 6 m/s 682 mmHg 49%
20:00 +26°C° 0.3 mm 4 m/s 682 mmHg 53%
21:00 +25°C° 0.3 mm 3 m/s 683 mmHg 58%
22:00 +25°C° 0 mm 3 m/s 683 mmHg 57%
23:00 +25°C° 0 mm 2 m/s 683 mmHg 56%

Depois de amanhã, 14 Julho, Terça-feira

Tempo Temperatura Precipitação Vento Pressão Humidade
00:00 +25°C° 0 mm 2 m/s 683 mmHg 56%
01:00 +25°C° 0 mm 2 m/s 683 mmHg 58%
02:00 +24°C° 0 mm 1 m/s 683 mmHg 60%
03:00 +24°C° 0 mm 1 m/s 683 mmHg 62%
04:00 +24°C° 0 mm 1 m/s 683 mmHg 63%
05:00 +24°C° 0 mm 2 m/s 683 mmHg 63%
06:00 +24°C° 0 mm 2 m/s 683 mmHg 63%
07:00 +25°C° 0 mm 2 m/s 684 mmHg 60%
08:00 +26°C° 0 mm 2 m/s 684 mmHg 56%
09:00 +27°C° 0 mm 2 m/s 684 mmHg 52%
10:00 +28°C° 0 mm 2 m/s 684 mmHg 47%
11:00 +29°C° 0 mm 2 m/s 684 mmHg 42%
12:00 +31°C° 0 mm 2 m/s 684 mmHg 37%
13:00 +32°C° 0 mm 2 m/s 684 mmHg 34%
14:00 +34°C° 0 mm 2 m/s 684 mmHg 32%
15:00 +35°C° 0 mm 2 m/s 684 mmHg 29%
16:00 +35°C° 0 mm 2 m/s 684 mmHg 29%
17:00 +35°C° 0 mm 2 m/s 685 mmHg 28%
18:00 +35°C° 0 mm 2 m/s 685 mmHg 28%
19:00 +32°C° 0.2 mm 2 m/s 685 mmHg 33%
20:00 +31°C° 0.2 mm 2 m/s 686 mmHg 37%
21:00 +30°C° 0.2 mm 2 m/s 686 mmHg 42%
22:00 +30°C° 0 mm 2 m/s 686 mmHg 43%
23:00 +29°C° 0 mm 1 m/s 686 mmHg 44%

15 Julho, Quarta-feira

Tempo Temperatura Precipitação Vento Pressão Humidade
00:00 +29°C° 0 mm 1 m/s 686 mmHg 46%
01:00 +28°C° 0.1 mm 2 m/s 686 mmHg 48%
02:00 +27°C° 0.1 mm 2 m/s 686 mmHg 51%
03:00 +27°C° 0.1 mm 2 m/s 686 mmHg 53%
04:00 +26°C° 0.4 mm 2 m/s 686 mmHg 54%
05:00 +26°C° 0.4 mm 2 m/s 686 mmHg 55%
06:00 +25°C° 0.4 mm 1 m/s 686 mmHg 56%
07:00 +26°C° 0 mm 1 m/s 686 mmHg 52%
08:00 +27°C° 0 mm 2 m/s 687 mmHg 48%
09:00 +28°C° 0 mm 2 m/s 687 mmHg 44%
10:00 +30°C° 0 mm 1 m/s 687 mmHg 41%
11:00 +31°C° 0 mm 1 m/s 687 mmHg 38%
12:00 +32°C° 0 mm 1 m/s 687 mmHg 35%
13:00 +33°C° 0 mm 1 m/s 686 mmHg 32%
14:00 +34°C° 0 mm 1 m/s 686 mmHg 28%
15:00 +35°C° 0 mm 1 m/s 686 mmHg 25%
16:00 +37°C° 0 mm 2 m/s 686 mmHg 24%
17:00 +37°C° 0 mm 2 m/s 686 mmHg 24%
18:00 +37°C° 0 mm 3 m/s 686 mmHg 23%
19:00 +35°C° 0 mm 3 m/s 686 mmHg 28%
20:00 +34°C° 0 mm 3 m/s 686 mmHg 33%
21:00 +31°C° 0 mm 2 m/s 686 mmHg 38%
22:00 +30°C° 0 mm 2 m/s 686 mmHg 41%
23:00 +30°C° 0 mm 2 m/s 686 mmHg 43%

16 Julho, Quinta-feira

Tempo Temperatura Precipitação Vento Pressão Humidade
00:00 +29°C° 0 mm 2 m/s 686 mmHg 46%
01:00 +28°C° 0.1 mm 1 m/s 686 mmHg 48%
02:00 +27°C° 0.1 mm 1 m/s 685 mmHg 51%
03:00 +26°C° 0.1 mm 1 m/s 685 mmHg 53%
04:00 +26°C° 0.2 mm 1 m/s 685 mmHg 54%
05:00 +26°C° 0.2 mm 1 m/s 685 mmHg 56%
06:00 +25°C° 0.2 mm 2 m/s 685 mmHg 57%
07:00 +26°C° 0.2 mm 1 m/s 685 mmHg 54%
08:00 +27°C° 0.2 mm 1 m/s 685 mmHg 51%
09:00 +28°C° 0.2 mm 1 m/s 685 mmHg 48%
10:00 +30°C° 0 mm 1 m/s 685 mmHg 44%
11:00 +31°C° 0 mm 1 m/s 685 mmHg 40%
12:00 +32°C° 0 mm 2 m/s 685 mmHg 36%
13:00 +35°C° 0 mm 2 m/s 684 mmHg 33%
14:00 +36°C° 0 mm 3 m/s 684 mmHg 31%
15:00 +37°C° 0 mm 3 m/s 684 mmHg 28%
16:00 +34°C° 0.7 mm 4 m/s 683 mmHg 37%
17:00 +32°C° 0.7 mm 5 m/s 683 mmHg 45%
18:00 +28°C° 0.7 mm 6 m/s 682 mmHg 53%
19:00 +28°C° 0.2 mm 5 m/s 683 mmHg 53%
20:00 +28°C° 0.2 mm 3 m/s 684 mmHg 53%
21:00 +27°C° 0.2 mm 2 m/s 684 mmHg 53%
22:00 +27°C° 0 mm 2 m/s 684 mmHg 54%
23:00 +27°C° 0 mm 1 m/s 684 mmHg 54%

17 Julho, Sexta-feira

Tempo Temperatura Precipitação Vento Pressão Humidade
00:00 +27°C° 0 mm 1 m/s 684 mmHg 55%
01:00 +26°C° 0.1 mm 1 m/s 684 mmHg 56%
02:00 +26°C° 0.1 mm 1 m/s 683 mmHg 58%
03:00 +25°C° 0.1 mm 1 m/s 683 mmHg 59%
04:00 +25°C° 0.1 mm 1 m/s 683 mmHg 59%
05:00 +25°C° 0.1 mm 1 m/s 683 mmHg 60%
06:00 +25°C° 0.1 mm 1 m/s 683 mmHg 60%
07:00 +26°C° 0.1 mm 1 m/s 683 mmHg 57%
08:00 +26°C° 0.1 mm 1 m/s 683 mmHg 54%
09:00 +27°C° 0.1 mm 1 m/s 683 mmHg 51%
10:00 +29°C° 0.1 mm 1 m/s 683 mmHg 47%
11:00 +30°C° 0.1 mm 1 m/s 683 mmHg 43%
12:00 +31°C° 0.1 mm 1 m/s 683 mmHg 38%
13:00 +33°C° 0 mm 1 m/s 683 mmHg 36%
14:00 +35°C° 0 mm 2 m/s 683 mmHg 33%
15:00 +36°C° 0 mm 2 m/s 683 mmHg 31%
16:00 +35°C° 0 mm 3 m/s 683 mmHg 32%
17:00 +35°C° 0 mm 4 m/s 683 mmHg 33%
18:00 +35°C° 0 mm 4 m/s 683 mmHg 34%
19:00 +33°C° 0.2 mm 4 m/s 683 mmHg 38%
20:00 +31°C° 0.2 mm 3 m/s 683 mmHg 42%
21:00 +30°C° 0.2 mm 3 m/s 684 mmHg 46%
22:00 +29°C° 0 mm 2 m/s 684 mmHg 47%
23:00 +29°C° 0 mm 2 m/s 684 mmHg 49%
Mostrar mais